Weather History for Lafayette, IN

Change the Weather History Date:

Saturday, August 3, 2013

  Actual Average Record
Temperature  
Mean Temperature 70 °F 74 °F  
Max Temperature 82 °F 84 °F 99 °F (1964)
Min Temperature 58 °F 64 °F 48 °F (1965)
Degree Days  
Heating Degree Days 0 0  
Month to date heating degree days 0 0  
Since 1 June heating degree days 27 23  
Since 1 July heating degree days 9 1  
Cooling Degree Days 5 9  
Month to date cooling degree days 15 27  
Year to date cooling degree days 518 618  
Since 1 June cooling degree days 417 541  
Growing Degree Days 22 (Base 50)    
Moisture  
Dew Point 63 °F    
Average Humidity 76    
Maximum Humidity 100    
Minimum Humidity 51    
Precipitation  
Precipitation 0.50 in 0.11 in 2.96 in (1960)
Month to date precipitation 0.70 0.34  
Year to date precipitation 26.24 22.43  
Sea Level Pressure  
Sea Level Pressure 29.99 in    
Wind  
Wind Speed 5 mph (North)    
Max Wind Speed 17 mph    
Max Gust Speed 21 mph    
Visibility 8 miles    
Events Rain , Thunderstorm    
T = Trace of Precipitation, MM = Missing Value Source: NWS Daily Summary

Daily Weather History Graph

Daily Weather History Graph

Search for Another Location

Airport:

Trip Planner

Search our weather history database for the weather conditions in past years. The results will help you decide how hot, cold, wet, or windy it might be!

Date:

Astronomy

Aug. 03, 2013 Rise Set
Actual Time 6:47 AM EDT 8:59 PM EDT
Civil Twilight 6:16 AM EDT 9:30 PM EDT
Nautical Twilight 5:39 AM EDT 10:07 PM EDT
Astronomical Twilight 4:58 AM EDT 10:47 PM EDT
Moon 3:56 AM EDT (8/3) 6:42 PM EDT (8/3)
Length of Visible Light 15h 13m
Length of Day
14h 12m
Waning Crescent, 9% of the Moon is Illuminated
Aug 3
Waning Crescent
Aug 6
New
Aug 14
First Quarter
Aug 20
Full
Aug 28
Last Quarter

Hourly Weather History & Observations

Time (EDT) Temp. Heat Index Dew Point Humidity Pressure Visibility Wind Dir Wind Speed Gust Speed Precip Events Conditions
12:09 AM 71.6 °F - 66.2 °F 83% 29.94 in 10.0 mi West 10.4 mph - 0.01 in Rain , Thunderstorm Light Rain
12:54 AM 66.9 °F - 64.9 °F 93% 29.94 in 5.0 mi WSW 9.2 mph - 0.19 in Rain , Thunderstorm Thunderstorms and Rain
1:01 AM 66.2 °F - 64.4 °F 94% 29.96 in 7.0 mi West 9.2 mph - 0.02 in Rain Rain
1:17 AM 66.2 °F - 64.4 °F 94% 29.97 in 2.5 mi WNW 8.1 mph - 0.14 in Rain Heavy Rain
1:42 AM 66.2 °F - 66.2 °F 100% 29.97 in 2.5 mi Calm Calm - 0.34 in Rain Heavy Rain
1:48 AM 66.2 °F - 64.4 °F 94% 29.97 in 1.5 mi Calm Calm - 0.41 in Rain Heavy Rain
1:54 AM 66.0 °F - 66.0 °F 100% 29.96 in 2.5 mi North 3.5 mph - 0.43 in Rain Rain
2:02 AM 66.2 °F - 64.4 °F 94% 29.97 in 8.0 mi North 3.5 mph - 0.01 in Rain Light Rain
2:37 AM 66.2 °F - 64.4 °F 94% 29.97 in 6.0 mi North 5.8 mph - 0.05 in Rain Rain
2:54 AM 66.0 °F - 64.9 °F 96% 29.95 in 8.0 mi North 5.8 mph - 0.07 in Rain Light Rain
3:47 AM 66.2 °F - 66.2 °F 100% 29.96 in 10.0 mi Calm Calm - 0.01 in   Overcast
3:54 AM 66.9 °F - 66.0 °F 97% 29.95 in 10.0 mi Calm Calm - 0.01 in   Overcast
4:54 AM 66.0 °F - 66.0 °F 100% 29.95 in 7.0 mi Calm Calm - N/A   Overcast
5:54 AM 66.0 °F - 66.0 °F 100% 29.95 in 9.0 mi Calm Calm - 0.00 in   Overcast
6:54 AM 66.0 °F - 64.9 °F 96% 29.97 in 9.0 mi Calm Calm - N/A   Overcast
7:54 AM 66.9 °F - 66.0 °F 97% 29.96 in 9.0 mi Calm Calm - N/A   Mostly Cloudy
8:54 AM 71.1 °F - 66.9 °F 87% 29.99 in 10.0 mi NW 5.8 mph - N/A   Clear
9:54 AM 73.0 °F - 66.9 °F 81% 29.99 in 10.0 mi North 5.8 mph - N/A   Partly Cloudy
10:54 AM 75.0 °F - 66.9 °F 76% 29.99 in 10.0 mi NNE 6.9 mph - N/A   Scattered Clouds
11:54 AM 78.1 °F - 66.9 °F 68% 30.00 in 10.0 mi North 4.6 mph - N/A   Scattered Clouds
12:54 PM 77.0 °F - 66.0 °F 69% 30.02 in 10.0 mi North 3.5 mph - N/A   Partly Cloudy
1:54 PM 79.0 °F - 64.0 °F 60% 30.03 in 10.0 mi North 9.2 mph - N/A   Partly Cloudy
2:54 PM 81.0 °F 82.5 °F 64.0 °F 56% 30.02 in 10.0 mi NNW 11.5 mph - N/A   Partly Cloudy
3:54 PM 80.1 °F 81.1 °F 61.0 °F 52% 30.01 in 10.0 mi North 9.2 mph - N/A   Partly Cloudy
4:54 PM 80.1 °F 81.2 °F 62.1 °F 54% 30.01 in 10.0 mi North 9.2 mph - N/A   Scattered Clouds
5:54 PM 78.1 °F - 60.1 °F 54% 30.02 in 10.0 mi NNE 9.2 mph - N/A   Partly Cloudy
6:54 PM 75.9 °F - 57.0 °F 52% 30.03 in 10.0 mi North 13.8 mph - N/A   Clear
7:54 PM 73.9 °F - 55.0 °F 52% 30.04 in 10.0 mi North 10.4 mph - N/A   Clear
8:54 PM 70.0 °F - 52.0 °F 53% 30.05 in 10.0 mi NNE 6.9 mph - N/A   Clear
9:54 PM 66.0 °F - 51.1 °F 59% 30.06 in 10.0 mi North 4.6 mph - N/A   Clear
10:54 PM 64.9 °F - 52.0 °F 63% 30.09 in 10.0 mi NNE 3.5 mph - N/A   Clear
11:54 PM 64.0 °F - 52.0 °F 65% 30.09 in 10.0 mi North 3.5 mph - N/A   Clear